Weather History for Norfolk, NE

Change the Weather History Date:

Friday, January 31, 2014

  Actual Average Record
Temperature  
Mean Temperature 18 °F 23 °F  
Max Temperature 25 °F 34 °F 65 °F (1989)
Min Temperature 11 °F 13 °F -26 °F (1918)
Degree Days  
Heating Degree Days 47 42  
Month to date heating degree days 1334 1321  
Since 1 July heating degree days 4096 4022  
Cooling Degree Days 0 0  
Month to date cooling degree days 0 0  
Year to date cooling degree days 0 0  
Moisture  
Dew Point 7 °F    
Average Humidity 62    
Maximum Humidity 77    
Minimum Humidity 46    
Precipitation  
Precipitation 0.01 in 0.02 in 0.50 in (1915)
Month to date precipitation 0.14 0.59  
Year to date precipitation 0.14 0.59  
Snow  
Snow 0.20 in 0.20 in - ()
Month to date snowfall 1.2 6.4  
Since 1 July snowfall 4.5 17.3  
Snow Depth 0.00 in    
Sea Level Pressure  
Sea Level Pressure 30.07 in    
Wind  
Wind Speed 5 mph (SE)    
Max Wind Speed 10 mph    
Max Gust Speed 13 mph    
Visibility 9 miles    
Events Snow    
T = Trace of Precipitation, MM = Missing Value Source: NWS Daily Summary

Daily Weather History Graph

Daily Weather History Graph

Search for Another Location

Airport:

Trip Planner

Search our weather history database for the weather conditions in past years. The results will help you decide how hot, cold, wet, or windy it might be!

Date:

Astronomy

Jan. 31, 2014 Rise Set
Actual Time 7:43 AM CST 5:43 PM CST
Civil Twilight 7:13 AM CST 6:13 PM CST
Nautical Twilight 6:40 AM CST 6:46 PM CST
Astronomical Twilight 6:07 AM CST 7:19 PM CST
Moon 7:52 AM CST (1/31) 7:11 PM CST (1/31)
Length of Visible Light 10h 59m
Length of Day
10h 00m
New Moon, 1% of the Moon is Illuminated
Jan 31
New Moon
Feb 6
First Quarter
Feb 14
Full
Feb 22
Last Quarter
Mar 1
New

Hourly Weather History & Observations

Time (CST) Temp. Windchill Dew Point Humidity Pressure Visibility Wind Dir Wind Speed Gust Speed Precip Events Conditions
12:56 AM 16.0 °F 8.8 °F 6.1 °F 65% 30.11 in 10.0 mi North 4.6 mph - N/A   Overcast
1:56 AM 15.1 °F 6.4 °F 5.0 °F 64% 30.11 in 10.0 mi North 5.8 mph - N/A   Overcast
2:56 AM 14.0 °F 2.0 °F 5.0 °F 67% 30.12 in 10.0 mi NE 9.2 mph - N/A   Overcast
3:56 AM 12.9 °F 3.8 °F 3.9 °F 67% 30.12 in 10.0 mi NE 5.8 mph - N/A   Overcast
4:56 AM 12.0 °F 2.7 °F 3.0 °F 67% 30.14 in 10.0 mi ESE 5.8 mph - N/A   Overcast
5:56 AM 12.0 °F 2.7 °F 1.9 °F 64% 30.14 in 10.0 mi East 5.8 mph - N/A   Overcast
6:56 AM 12.0 °F 4.1 °F 1.9 °F 64% 30.16 in 10.0 mi East 4.6 mph - N/A   Overcast
7:56 AM 10.9 °F 1.4 °F 1.0 °F 64% 30.18 in 10.0 mi ESE 5.8 mph - N/A   Overcast
8:56 AM 12.0 °F 5.9 °F 1.9 °F 64% 30.19 in 10.0 mi ESE 3.5 mph - N/A   Overcast
9:56 AM 14.0 °F 5.1 °F 1.9 °F 59% 30.19 in 10.0 mi SSE 5.8 mph - N/A   Overcast
10:56 AM 16.0 °F 10.4 °F 3.9 °F 59% 30.20 in 8.0 mi Variable 3.5 mph - 0.00 in Snow Light Snow
11:56 AM 19.0 °F - 5.0 °F 54% 30.15 in 10.0 mi Calm Calm - 0.00 in   Clear
12:56 PM 21.0 °F - 5.0 °F 50% 30.10 in 10.0 mi North - - N/A   Clear
1:56 PM 23.0 °F 17.0 °F 6.1 °F 48% 30.07 in 10.0 mi South 4.6 mph - N/A   Clear
2:56 PM 23.0 °F 17.0 °F 6.1 °F 48% 30.04 in 10.0 mi SSW 4.6 mph - N/A   Clear
3:56 PM 24.1 °F 19.7 °F 7.0 °F 48% 30.03 in 10.0 mi South 3.5 mph - N/A   Clear
4:56 PM 25.0 °F 15.5 °F 8.1 °F 49% 30.01 in 10.0 mi SSE 9.2 mph - N/A   Clear
5:56 PM 23.0 °F 17.0 °F 9.0 °F 55% 29.99 in 10.0 mi SSE 4.6 mph - N/A   Overcast
6:56 PM 21.0 °F 11.4 °F 9.0 °F 60% 30.01 in 10.0 mi SSE 8.1 mph - N/A   Clear
7:56 PM 19.9 °F 11.1 °F 9.0 °F 62% 30.02 in 10.0 mi SSE 6.9 mph - N/A   Mostly Cloudy
8:56 PM 21.0 °F 14.6 °F 9.0 °F 60% 30.03 in 10.0 mi South 4.6 mph - N/A   Overcast
9:56 PM 21.9 °F 14.5 °F 8.1 °F 55% 30.01 in 10.0 mi South 5.8 mph - N/A   Overcast
10:56 PM 19.9 °F 12.1 °F 14.0 °F 78% 30.00 in 10.0 mi South 5.8 mph - N/A   Overcast
11:34 PM 19.9 °F 12.1 °F 15.1 °F 81% 29.92 in 1.8 mi South 5.8 mph - 0.00 in Snow Light Snow
11:42 PM 19.9 °F 12.1 °F 16.0 °F 85% 29.92 in 1.8 mi South 5.8 mph - 0.00 in Snow Light Snow
11:56 PM 19.9 °F 13.4 °F 16.0 °F 85% 29.99 in 1.8 mi South 4.6 mph - 0.01 in Snow Light Snow